Regional Weather Roundup
Issued by NWS

Home | Current Version | Previous Version | Text Only | Print | Product List | Glossary Off
Versions: 1 2 3 4 5 6 7 8 9 10 11 12 13 14 15 16 17 18 19 20 21 22 23 24 25 26 27

000
ASUS45 KTFX 280210
RWRMT
MONTANA REGIONAL WEATHER ROUNDUP
NATIONAL WEATHER SERVICE GREAT FALLS MT
800 PM MDT WED APR 27 2016

NOTE: "FAIR" INDICATES FEW OR NO CLOUDS BELOW 12000 FEET WITH NO
SIGNIFICANT WEATHER AND/OR OBSTRUCTIONS TO VISIBILITY.

MTZ001>007-043-280300-
WEST OF THE DIVIDE

CITY           SKY/WX    TMP DP  RH WIND       PRES   REMARKS
KALISPELL      CLEAR     52  32  46 NE18      29.94R
MISSOULA       CLOUDY    54  32  43 E16       29.90R
BUTTE          CLOUDY    39  26  59 N10G18    29.91S
MULLAN PASS    CLOUDY    39  31  72 E6        29.90S
ANACONDA         N/A     39  27  60 N12G18    29.94R WCI  32
DEER LODGE       N/A     41  28  60 NE13      29.97R
EUREKA           N/A     55  27  33 NE16G25     N/A
HAMILTON         N/A     54  28  37 NW13      29.84R
LIBBY            N/A     55  43  62 S5        29.88R
PLAINS           N/A     60  33  36 NE7       29.89R
$$

MTZ008-052>055-280300-
SOUTHWEST MONTANA

CITY           SKY/WX    TMP DP  RH WIND       PRES   REMARKS
BOZEMAN        CLOUDY    42  37  82 S13       29.93R
DILLON         CLOUDY    43  29  57 NE24      29.87R
ENNIS          CLOUDY    41  30  65 N16       29.93S
THREE FORKS      N/A     43  26  51 N10       29.94R
TWIN BRIDGES     N/A     43  27  53 N20       29.89S
$$

MTZ009-010-012-014-046-048-049-054-280300-
EAST SLOPES AND CENTRAL MONTANA

CITY           SKY/WX    TMP DP  RH WIND       PRES   REMARKS
CUT BANK       LGT RAIN  36  35  96 E8        30.07R FOG     WCI  30
GREAT FALLS    LGT RAIN  36  33  89 MISG      30.03S FOG
HELENA         CLOUDY    42  30  62 N16       29.98R
CHOTEAU          N/A     36  36 100 NE13      30.05R FOG     WCI  27
CONRAD           N/A     39  38  97 N8        30.07S
$$

MTZ011-013-016-021-045-047-050-051-280300-
NORTH CENTRAL MONTANA

CITY           SKY/WX    TMP DP  RH WIND       PRES   REMARKS
HAVRE          LGT RAIN  37  35  92 E12       30.09R WCI  29
LEWISTOWN      LGT SNOW  34  31  88 N8        30.01R FOG     WCI  27
N BAR RANCH    LGT SNOW  32  32 100 N7        30.01R WCI  26
CHINOOK          N/A     37  37 100 SE3       30.11R
$$

MTZ017>020-022>027-061-062-280300-
NORTHEAST MONTANA

CITY           SKY/WX    TMP DP  RH WIND       PRES   REMARKS
GLASGOW        CLOUDY    40  37  89 SW3       30.07R
JORDAN           N/A     33  32  96 NE10      30.04R WCI  25
SIDNEY         CLOUDY    45  32  61 CALM      30.03R
WOLF POINT     CLOUDY    44  40  85 SW5       30.05R
PLENTYWOOD       N/A     48  28  46 N6        30.04R
SCOBEY           N/A     46  26  46 NE1       30.03S
$$

MTZ028>42-056>058-280300-
SOUTHCENTRAL AND SOUTHEAST MONTANA

CITY           SKY/WX    TMP DP  RH WIND       PRES   REMARKS
BAKER          LGT SNOW  33  31  92 E8        30.01R FOG     WCI  26
BILLINGS       FLURRIES  35  33  92 NE9       29.99R WCI  28
LIVINGSTON     CLOUDY    36  32  85 E20       29.94R WCI  25
MILES CITY     LGT SNOW  35  33  92 NE12      30.01R FOG     WCI  27
EKALAKA          N/A     32  30  92 NE6       29.95R WCI  26
FORSYTH          N/A    N/A N/A N/A NE8       30.01R
LAUREL           N/A     35  28  76 N3        29.97
ROUNDUP          N/A     33  29  86 S6        29.92R WCI  27
$$

REGIONAL REPORTS...DAKOTAS

CITY           SKY/WX    TMP DP  RH WIND       PRES   REMARKS
WILLISTON      CLOUDY    49  29  46 E5        30.02R
MINOT          CLOUDY    51  26  37 NE7       30.01R
DICKINSON      CLOUDY    38  28  67 E14G24    29.98R WCI  30
BEACH          CLOUDY    37  36  93 CALM      30.04R
CROSBY           N/A     48  21  34 NE12      30.07R
TIOGA            N/A     46  23  39 NE13      30.08R
WATFORD CITY     N/A     45  30  57 NE3       30.02R
BISMARCK       CLOUDY    47  30  51 NE7       29.95S
GRAND FORKS    CLOUDY    50  27  40 NE14      29.99R
FARGO          CLOUDY    52  25  35 E12       29.92R
BUFFALO SD       N/A     33  31  92 NE16      29.89R WCI  23
RAPID CITY     LGT SNOW  32  31  96 N21       29.88R FOG     WCI  20
$$

REGIONAL REPORTS...WYOMING/IDAHO/WASHINGTON

CITY           SKY/WX    TMP DP  RH WIND       PRES   REMARKS
GILLETTE       LGT SNOW  32  32 100 N13       29.90S WCI  22
SHERIDAN       LGT SNOW  33  32  96 NW7       29.96R FOG     WCI  27
BUFFALO WY     LGT SNOW  32  30  92 N17       29.92S FOG     WCI  21
CODY           CLOUDY    34  32  93 N10       29.93R WCI  26
YELLOWSTONE LA   N/A     34  24  67 VRB3      29.87R
IDAHO FALLS    MOCLDY    53  26  35 NE6       29.77R
SALMON         CLOUDY    55  28  35 SE15      29.76R
BOISE          MOCLDY    57  36  45 N9        29.78S
SPOKANE        MOCLDY    57  39  51 NW5       29.88S
$$

REGIONAL REPORTS...ALBERTA

CITY           SKY/WX    TMP DP  RH WIND       PRES   REMARKS
EDMONTON       PTCLDY    57  32  38 SE14      30.06R
CALGARY        MOCLDY    46  28  49 SE13      30.08R
LETHBRIDGE     LGT RAIN  43  36  75 E9        30.09R
MEDICINE HAT   CLOUDY    45  36  70 E8        30.12R
WATERTON GATE    N/A     39  32  75 E7          N/A
MILK RIVER       N/A     39  36  87 E8          N/A
ONEFOUR          N/A     37  34  87 E12         N/A  WCI  30
$$

REGIONAL REPORTS...SASKATCHEWAN

CITY           SKY/WX    TMP DP  RH WIND       PRES   REMARKS
SWIFT CURRENT  CLOUDY    46  25  42 NE8       30.09R
REGINA         CLOUDY    52  19  28 NE13      30.10R
SASKATOON      MOCLDY    52  18  25 E10       30.15R
CYPRESS HILLS    N/A     36  28  75 E5          N/A
VAL MARIE        N/A     41  36  81 W5          N/A
ROCKGLEN         N/A     45  25  45 NE1         N/A
$$




USA.gov is the U.S. government's official web portal to all federal, state and local government web resources and services.